status,avgMeasuredTime,avgSpeed,extID,medianMeasuredTime,TIMESTAMP,vehicleCount,_id,REPORT_ID
OK,84,38,613,84,2014-08-01T07:50:00,6,20746165,201291
OK,75,43,613,75,2014-08-01T07:55:00,8,20746337,201291
OK,71,45,613,71,2014-08-01T08:00:00,6,20746668,201291
OK,65,50,613,65,2014-08-01T08:05:00,3,20747117,201291
OK,85,38,613,85,2014-08-01T08:10:00,5,20747490,201291
OK,81,40,613,81,2014-08-01T08:15:00,7,20747939,201291
OK,73,44,613,73,2014-08-01T08:20:00,4,20748388,201291
OK,72,45,613,72,2014-08-01T08:25:00,4,20748837,201291
OK,75,43,613,75,2014-08-01T08:30:00,5,20749286,201291
OK,80,40,613,80,2014-08-01T08:35:00,5,20749735,201291
OK,81,40,613,81,2014-08-01T08:40:00,11,20750184,201291
OK,75,43,613,75,2014-08-01T08:45:00,8,20750633,201291
OK,85,38,613,85,2014-08-01T08:50:00,6,20751082,201291
OK,84,38,613,84,2014-08-01T08:55:00,4,20751531,201291
OK,75,43,613,75,2014-08-01T09:00:00,6,20751980,201291
OK,81,40,613,81,2014-08-01T09:05:00,9,20752429,201291
OK,85,38,613,85,2014-08-01T09:10:00,10,20752878,201291
OK,88,37,613,88,2014-08-01T09:15:00,11,20753327,201291
OK,88,37,613,88,2014-08-01T09:20:00,13,20753776,201291
OK,82,39,613,82,2014-08-01T09:25:00,7,20754225,201291
OK,81,40,613,81,2014-08-01T09:30:00,4,20754674,201291
OK,80,40,613,80,2014-08-01T09:35:00,4,20755123,201291
OK,74,44,613,74,2014-08-01T09:40:00,1,20755572,201291
OK,74,44,613,74,2014-08-01T09:45:00,5,20756021,201291
OK,71,45,613,71,2014-08-01T09:50:00,7,20756470,201291
OK,80,40,613,80,2014-08-01T09:55:00,3,20756919,201291
OK,74,44,613,74,2014-08-01T10:00:00,6,20757368,201291
OK,135,24,613,135,2014-08-01T10:05:00,2,20757817,201291
OK,90,36,613,90,2014-08-01T10:10:00,5,20758266,201291
OK,89,36,613,89,2014-08-01T10:15:00,6,20758715,201291
OK,87,37,613,87,2014-08-01T10:20:00,7,20759164,201291
OK,87,37,613,87,2014-08-01T10:25:00,7,20759613,201291
OK,86,37,613,86,2014-08-01T10:30:00,12,20760062,201291
OK,96,33,613,96,2014-08-01T10:35:00,9,20760511,201291
OK,85,38,613,85,2014-08-01T10:40:00,8,20760960,201291
OK,83,39,613,83,2014-08-01T10:45:00,9,20761409,201291
OK,88,37,613,88,2014-08-01T10:50:00,9,20761858,201291
OK,87,37,613,87,2014-08-01T10:55:00,6,20762307,201291
OK,73,44,613,73,2014-08-01T11:00:00,4,20762756,201291
OK,84,38,613,84,2014-08-01T11:05:00,6,20763205,201291
OK,87,37,613,87,2014-08-01T11:10:00,6,20763654,201291
OK,83,39,613,83,2014-08-01T11:15:00,7,20764103,201291
OK,81,40,613,81,2014-08-01T11:20:00,3,20764551,201291
OK,83,39,613,83,2014-08-01T11:25:00,5,20765000,201291
OK,84,38,613,84,2014-08-01T11:30:00,10,20765449,201291
OK,83,39,613,83,2014-08-01T11:35:00,4,20765898,201291
OK,72,45,613,72,2014-08-01T11:40:00,4,20766347,201291
OK,72,45,613,72,2014-08-01T11:45:00,4,20766796,201291
OK,67,48,613,67,2014-08-01T11:50:00,2,20767245,201291
OK,78,41,613,78,2014-08-01T11:55:00,3,20767694,201291
OK,84,38,613,84,2014-08-01T12:00:00,5,20768143,201291
OK,95,34,613,95,2014-08-01T12:05:00,7,20768592,201291
OK,97,33,613,97,2014-08-01T12:10:00,6,20769041,201291
OK,77,42,613,77,2014-08-01T12:15:00,5,20769490,201291
OK,73,44,613,73,2014-08-01T12:20:00,4,20769939,201291
OK,74,44,613,74,2014-08-01T12:25:00,5,20770388,201291
OK,74,44,613,74,2014-08-01T12:30:00,5,20770837,201291
OK,82,39,613,82,2014-08-01T12:35:00,6,20771286,201291
OK,82,39,613,82,2014-08-01T12:40:00,4,20771735,201291
OK,64,50,613,64,2014-08-01T12:45:00,0,20772184,201291
OK,94,34,613,94,2014-08-01T12:50:00,6,20772633,201291
OK,94,34,613,94,2014-08-01T12:55:00,8,20773082,201291
OK,99,32,613,99,2014-08-01T13:00:00,1,20773531,201291
OK,109,29,613,109,2014-08-01T13:05:00,4,20773980,201291
OK,110,29,613,110,2014-08-01T13:10:00,4,20774429,201291
OK,97,33,613,97,2014-08-01T13:15:00,2,20774878,201291
OK,83,39,613,83,2014-08-01T13:20:00,3,20775327,201291
OK,103,31,613,103,2014-08-01T13:25:00,4,20775776,201291
OK,110,29,613,110,2014-08-01T13:30:00,3,20776225,201291
OK,109,29,613,109,2014-08-01T13:35:00,2,20776674,201291
OK,108,30,613,108,2014-08-01T13:40:00,0,20777123,201291
OK,108,30,613,108,2014-08-01T13:45:00,0,20777572,201291
OK,91,35,613,91,2014-08-01T13:50:00,2,20778021,201291
OK,86,37,613,86,2014-08-01T13:55:00,9,20778470,201291
OK,80,40,613,80,2014-08-01T14:00:00,8,20778919,201291
OK,93,35,613,93,2014-08-01T14:05:00,3,20779368,201291
OK,82,39,613,82,2014-08-01T14:10:00,2,20779817,201291
OK,87,37,613,87,2014-08-01T14:15:00,5,20780266,201291
OK,86,37,613,86,2014-08-01T14:20:00,4,20780715,201291
OK,99,32,613,99,2014-08-01T14:25:00,3,20781164,201291
OK,99,32,613,99,2014-08-01T14:30:00,8,20781613,201291
OK,88,37,613,88,2014-08-01T14:35:00,13,20782062,201291
OK,77,42,613,77,2014-08-01T14:40:00,4,20782511,201291
OK,67,48,613,67,2014-08-01T14:45:00,1,20782960,201291
OK,67,48,613,67,2014-08-01T14:50:00,1,20783409,201291
OK,70,46,613,70,2014-08-01T14:55:00,2,20783858,201291
OK,92,35,613,92,2014-08-01T15:00:00,7,20784307,201291
OK,93,35,613,93,2014-08-01T15:05:00,9,20784756,201291
OK,98,33,613,98,2014-08-01T15:10:00,3,20785205,201291
OK,91,35,613,91,2014-08-01T15:15:00,6,20785654,201291
OK,88,37,613,88,2014-08-01T15:20:00,6,20786103,201291
OK,82,39,613,82,2014-08-01T15:25:00,6,20786552,201291
OK,82,39,613,82,2014-08-01T15:30:00,4,20787001,201291
OK,86,37,613,86,2014-08-01T15:35:00,6,20787450,201291
OK,82,39,613,82,2014-08-01T15:40:00,9,20787899,201291
OK,81,40,613,81,2014-08-01T15:45:00,6,20788348,201291
OK,87,37,613,87,2014-08-01T15:50:00,6,20788797,201291
OK,98,33,613,98,2014-08-01T15:55:00,2,20789246,201291
OK,103,31,613,103,2014-08-01T16:00:00,1,20789695,201291
OK,92,35,613,92,2014-08-01T16:05:00,4,20790144,201291
OK,92,35,613,92,2014-08-01T16:10:00,4,20790593,201291
OK,81,40,613,81,2014-08-01T16:15:00,4,20791042,201291
OK,81,40,613,81,2014-08-01T16:20:00,3,20791491,201291
OK,81,40,613,81,2014-08-01T16:25:00,0,20791940,201291
OK,75,43,613,75,2014-08-01T16:30:00,3,20792389,201291
OK,77,42,613,77,2014-08-01T16:35:00,4,20792838,201291
OK,87,37,613,87,2014-08-01T16:40:00,1,20793287,201291
OK,87,37,613,87,2014-08-01T16:45:00,0,20793736,201291
OK,91,35,613,91,2014-08-01T16:50:00,3,20794185,201291
OK,91,35,613,91,2014-08-01T16:55:00,4,20794634,201291
OK,76,42,613,76,2014-08-01T17:00:00,2,20795083,201291
OK,91,35,613,91,2014-08-01T17:05:00,9,20795532,201291
OK,92,35,613,92,2014-08-01T17:10:00,8,20795981,201291
OK,66,49,613,66,2014-08-01T17:15:00,5,20796430,201291
OK,85,38,613,85,2014-08-01T17:20:00,2,20796879,201291
OK,93,35,613,93,2014-08-01T17:25:00,1,20797328,201291
OK,93,35,613,93,2014-08-01T17:30:00,1,20797777,201291
OK,77,42,613,77,2014-08-01T17:35:00,3,20798226,201291
OK,68,47,613,68,2014-08-01T17:40:00,1,20798675,201291
OK,89,36,613,89,2014-08-01T17:45:00,2,20799124,201291
OK,86,37,613,86,2014-08-01T17:50:00,4,20799573,201291
OK,122,26,613,122,2014-08-01T17:55:00,1,20800022,201291
OK,96,33,613,96,2014-08-01T18:00:00,2,20800471,201291
OK,98,33,613,98,2014-08-01T18:05:00,3,20800920,201291
OK,58,56,613,58,2014-08-01T18:10:00,2,20801369,201291
OK,93,35,613,93,2014-08-01T18:15:00,6,20801818,201291
OK,94,34,613,94,2014-08-01T18:20:00,4,20802267,201291
OK,90,36,613,90,2014-08-01T18:25:00,0,20802716,201291
OK,86,37,613,86,2014-08-01T18:30:00,1,20803165,201291
OK,76,42,613,76,2014-08-01T18:35:00,2,20803614,201291
OK,101,32,613,101,2014-08-01T18:40:00,2,20804063,201291
OK,75,43,613,75,2014-08-01T18:45:00,4,20804512,201291
OK,73,44,613,73,2014-08-01T18:50:00,6,20804961,201291
OK,73,44,613,73,2014-08-01T18:55:00,2,20805410,201291
OK,61,53,613,61,2014-08-01T19:00:00,4,20805859,201291
OK,69,47,613,69,2014-08-01T19:05:00,2,20806308,201291
OK,95,34,613,95,2014-08-01T19:10:00,1,20806757,201291
OK,86,37,613,86,2014-08-01T19:15:00,2,20807206,201291
OK,63,51,613,63,2014-08-01T19:20:00,2,20807655,201291
OK,70,46,613,70,2014-08-01T19:25:00,2,20808104,201291
OK,94,34,613,94,2014-08-01T19:30:00,2,20808553,201291
OK,97,33,613,97,2014-08-01T19:35:00,3,20809002,201291
OK,97,33,613,97,2014-08-01T19:40:00,3,20809451,201291
OK,87,37,613,87,2014-08-01T19:45:00,3,20809900,201291
OK,100,32,613,100,2014-08-01T19:50:00,2,20810349,201291
OK,93,35,613,93,2014-08-01T19:55:00,3,20810798,201291
OK,72,45,613,72,2014-08-01T20:00:00,3,20811246,201291
OK,65,50,613,65,2014-08-01T20:05:00,3,20811420,201291
OK,63,51,613,63,2014-08-01T20:10:00,2,20811620,201291
OK,121,26,613,121,2014-08-01T20:15:00,1,20811828,201291
OK,89,36,613,89,2014-08-01T20:20:00,3,20812035,201291
OK,100,32,613,100,2014-08-01T20:25:00,3,20812256,201291
OK,95,34,613,95,2014-08-01T20:30:00,2,20812469,201291
OK,99,32,613,99,2014-08-01T20:35:00,3,20812678,201291
OK,101,32,613,101,2014-08-01T20:40:00,4,20812881,201291
OK,87,37,613,87,2014-08-01T20:45:00,2,20813086,201291
OK,80,40,613,80,2014-08-01T20:50:00,2,20813297,201291
OK,87,37,613,87,2014-08-01T20:55:00,1,20813527,201291
OK,87,37,613,87,2014-08-01T21:00:00,0,20813765,201291
OK,78,41,613,78,2014-08-01T21:05:00,2,20813944,201291
OK,66,49,613,66,2014-08-01T21:10:00,1,20814182,201291
OK,66,49,613,66,2014-08-01T21:15:00,0,20814379,201291
OK,66,49,613,66,2014-08-01T21:20:00,0,20814584,201291
OK,68,47,613,68,2014-08-01T21:25:00,2,20814815,201291
OK,63,51,613,63,2014-08-01T21:30:00,3,20815089,201291
OK,64,50,613,64,2014-08-01T21:35:00,1,20815323,201291
OK,69,47,613,69,2014-08-01T21:40:00,3,20815546,201291
OK,73,44,613,73,2014-08-01T21:45:00,3,20815783,201291
OK,92,35,613,92,2014-08-01T21:50:00,3,20816024,201291
OK,92,35,613,92,2014-08-01T21:55:00,1,20816259,201291
OK,92,35,613,92,2014-08-01T22:00:00,0,20816527,201291
OK,92,35,613,92,2014-08-01T22:05:00,0,20816976,201291
OK,68,47,613,68,2014-08-01T22:10:00,1,20817298,201291
OK,68,47,613,68,2014-08-01T22:15:00,1,20817727,201291
OK,71,45,613,71,2014-08-01T22:20:00,1,20818017,201291
OK,89,36,613,89,2014-08-01T22:25:00,1,20818333,201291
OK,76,42,613,76,2014-08-01T22:30:00,2,20818667,201291
OK,64,50,613,64,2014-08-01T22:35:00,1,20818973,201291
OK,64,50,613,64,2014-08-01T22:40:00,0,20819151,201291
OK,64,50,613,64,2014-08-01T22:45:00,0,20819439,201291
OK,77,42,613,77,2014-08-01T22:50:00,1,20819674,201291
OK,77,42,613,77,2014-08-01T22:55:00,1,20819927,201291
OK,77,42,613,77,2014-08-01T23:00:00,0,20820103,201291
OK,77,42,613,77,2014-08-01T23:05:00,0,20820356,201291
OK,77,42,613,77,2014-08-01T23:10:00,0,20820586,201291
OK,77,42,613,77,2014-08-01T23:15:00,0,20820774,201291
OK,77,42,613,77,2014-08-01T23:20:00,0,20821029,201291
OK,77,42,613,77,2014-08-01T23:25:00,0,20821203,201291
OK,77,42,613,77,2014-08-01T23:30:00,0,20821428,201291
OK,77,42,613,77,2014-08-01T23:35:00,0,20821673,201291
OK,77,42,613,77,2014-08-01T23:40:00,0,20821852,201291
OK,77,42,613,77,2014-08-01T23:45:00,0,20822075,201291
OK,77,42,613,77,2014-08-01T23:50:00,0,20822342,201291
OK,77,42,613,77,2014-08-01T23:55:00,0,20822668,201291
OK,93,35,613,93,2014-08-02T00:00:00,1,20822966,201291
OK,93,35,613,93,2014-08-02T00:05:00,0,20823415,201291
OK,93,35,613,93,2014-08-02T00:10:00,0,20823864,201291
OK,90,36,613,90,2014-08-02T00:15:00,2,20824313,201291
OK,90,36,613,90,2014-08-02T00:20:00,1,20824762,201291
OK,90,36,613,90,2014-08-02T00:25:00,0,20825211,201291
OK,90,36,613,90,2014-08-02T00:30:00,0,20825660,201291
OK,90,36,613,90,2014-08-02T00:35:00,0,20826109,201291
OK,90,36,613,90,2014-08-02T00:40:00,0,20826558,201291
OK,72,45,613,72,2014-08-02T00:45:00,1,20827007,201291
OK,72,45,613,72,2014-08-02T00:50:00,0,20827456,201291
OK,72,45,613,72,2014-08-02T00:55:00,0,20827905,201291
OK,72,45,613,72,2014-08-02T01:00:00,0,20828354,201291
OK,72,45,613,72,2014-08-02T01:05:00,0,20828803,201291
OK,72,45,613,72,2014-08-02T01:10:00,0,20829252,201291
OK,72,45,613,72,2014-08-02T01:15:00,0,20829701,201291
OK,72,45,613,72,2014-08-02T01:20:00,0,20830150,201291
OK,72,45,613,72,2014-08-02T01:25:00,0,20830599,201291
OK,72,45,613,72,2014-08-02T01:30:00,0,20831048,201291
OK,72,45,613,72,2014-08-02T01:35:00,0,20831497,201291
OK,72,45,613,72,2014-08-02T01:40:00,0,20831946,201291
OK,72,45,613,72,2014-08-02T01:45:00,0,20832395,201291
OK,63,51,613,63,2014-08-02T01:50:00,1,20832844,201291
OK,52,62,613,52,2014-08-02T01:55:00,1,20833293,201291
OK,52,62,613,52,2014-08-02T02:00:00,0,20833742,201291
OK,52,62,613,52,2014-08-02T02:05:00,0,20834191,201291
OK,52,62,613,52,2014-08-02T02:10:00,0,20834640,201291
OK,52,62,613,52,2014-08-02T02:15:00,0,20835089,201291
OK,107,30,613,107,2014-08-02T02:20:00,2,20835538,201291
OK,144,22,613,144,2014-08-02T02:25:00,1,20835987,201291
OK,144,22,613,144,2014-08-02T02:30:00,0,20836436,201291
OK,144,22,613,144,2014-08-02T02:35:00,0,20836885,201291
OK,144,22,613,144,2014-08-02T02:40:00,0,20837334,201291
OK,144,22,613,144,2014-08-02T02:45:00,0,20837783,201291
OK,94,34,613,94,2014-08-02T02:50:00,1,20838232,201291
OK,94,34,613,94,2014-08-02T02:55:00,2,20838681,201291
OK,94,34,613,94,2014-08-02T03:00:00,0,20839130,201291
OK,94,34,613,94,2014-08-02T03:05:00,0,20839579,201291
OK,94,34,613,94,2014-08-02T03:10:00,0,20840028,201291
OK,94,34,613,94,2014-08-02T03:15:00,0,20840477,201291
OK,94,34,613,94,2014-08-02T03:20:00,0,20840926,201291
OK,55,59,613,55,2014-08-02T03:25:00,0,20841375,201291
OK,55,59,613,55,2014-08-02T03:30:00,0,20841824,201291
OK,55,59,613,55,2014-08-02T03:35:00,0,20842273,201291
OK,55,59,613,55,2014-08-02T03:40:00,0,20842722,201291
OK,55,59,613,55,2014-08-02T03:45:00,0,20843171,201291
OK,55,59,613,55,2014-08-02T03:50:00,0,20843620,201291
OK,55,59,613,55,2014-08-02T03:55:00,0,20844069,201291
OK,55,59,613,55,2014-08-02T04:00:00,0,20844518,201291
OK,55,59,613,55,2014-08-02T04:05:00,0,20844649,201291
OK,55,59,613,55,2014-08-02T04:10:00,0,20844979,201291
OK,55,59,613,55,2014-08-02T04:15:00,0,20845159,201291
OK,55,59,613,55,2014-08-02T04:20:00,0,20845515,201291
OK,55,59,613,55,2014-08-02T04:25:00,0,20845883,201291
OK,55,59,613,55,2014-08-02T04:30:00,0,20846071,201291
OK,55,59,613,55,2014-08-02T04:35:00,0,20846438,201291
OK,65,50,613,65,2014-08-02T04:40:00,1,20846821,201291
OK,65,50,613,65,2014-08-02T04:45:00,1,20847080,201291
OK,65,50,613,65,2014-08-02T04:50:00,0,20847446,201291
OK,65,50,613,65,2014-08-02T04:55:00,0,20847803,201291
OK,65,50,613,65,2014-08-02T05:00:00,0,20848163,201291
OK,56,58,613,56,2014-08-02T05:05:00,1,20848329,201291
OK,56,58,613,56,2014-08-02T05:10:00,0,20848681,201291
OK,56,58,613,56,2014-08-02T05:15:00,0,20848873,201291
OK,100,32,613,100,2014-08-02T05:20:00,1,20849217,201291
OK,100,32,613,100,2014-08-02T05:25:00,0,20849535,201291
OK,100,32,613,100,2014-08-02T05:30:00,0,20849742,201291
OK,66,49,613,66,2014-08-02T05:35:00,1,20850014,201291
OK,64,50,613,64,2014-08-02T05:40:00,2,20850307,201291
OK,62,52,613,62,2014-08-02T05:45:00,3,20850608,201291
OK,93,35,613,93,2014-08-02T05:50:00,2,20850966,201291
OK,123,26,613,123,2014-08-02T05:55:00,1,20851220,201291
OK,64,50,613,64,2014-08-02T06:00:00,2,20851523,201291
OK,66,49,613,66,2014-08-02T06:05:00,1,20851972,201291
OK,83,39,613,83,2014-08-02T06:10:00,1,20852421,201291
OK,83,39,613,83,2014-08-02T06:15:00,0,20852870,201291
OK,54,60,613,54,2014-08-02T06:20:00,1,20853319,201291
OK,58,56,613,58,2014-08-02T06:25:00,2,20853768,201291
OK,57,57,613,57,2014-08-02T06:30:00,2,20854217,201291
OK,58,56,613,58,2014-08-02T06:35:00,3,20854666,201291
OK,96,33,613,96,2014-08-02T06:40:00,1,20855115,201291
OK,97,33,613,97,2014-08-02T06:45:00,2,20855564,201291
OK,81,40,613,81,2014-08-02T06:50:00,2,20856013,201291
OK,91,35,613,91,2014-08-02T06:55:00,1,20856462,201291
OK,91,35,613,91,2014-08-02T07:00:00,1,20856911,201291
OK,91,35,613,91,2014-08-02T07:05:00,0,20857360,201291
OK,68,47,613,68,2014-08-02T07:10:00,2,20857809,201291
OK,73,44,613,73,2014-08-02T07:15:00,4,20858258,201291
OK,89,36,613,89,2014-08-02T07:20:00,2,20858707,201291
OK,66,49,613,66,2014-08-02T07:25:00,4,20859156,201291
OK,66,49,613,66,2014-08-02T07:30:00,4,20859605,201291
OK,86,37,613,86,2014-08-02T07:35:00,4,20860054,201291
OK,90,36,613,90,2014-08-02T07:40:00,6,20860503,201291
OK,90,36,613,90,2014-08-02T07:45:00,4,20860952,201291
OK,81,40,613,81,2014-08-02T07:50:00,6,20861401,201291
OK,75,43,613,75,2014-08-02T07:55:00,11,20861850,201291
OK,77,42,613,77,2014-08-02T08:00:00,13,20862299,201291
OK,95,34,613,95,2014-08-02T08:05:00,11,20862748,201291
OK,95,34,613,95,2014-08-02T08:10:00,5,20863197,201291
OK,80,40,613,80,2014-08-02T08:15:00,5,20863646,201291
OK,87,37,613,87,2014-08-02T08:20:00,8,20864095,201291
OK,82,39,613,82,2014-08-02T08:25:00,5,20864544,201291
OK,83,39,613,83,2014-08-02T08:30:00,6,20864993,201291
OK,85,38,613,85,2014-08-02T08:35:00,6,20865442,201291
OK,99,32,613,99,2014-08-02T08:40:00,2,20865891,201291
OK,88,37,613,88,2014-08-02T08:45:00,2,20866340,201291
OK,107,30,613,107,2014-08-02T08:50:00,2,20866789,201291
OK,90,36,613,90,2014-08-02T08:55:00,6,20867238,201291
OK,81,40,613,81,2014-08-02T09:00:00,6,20867687,201291
OK,71,45,613,71,2014-08-02T09:05:00,5,20868136,201291
OK,81,40,613,81,2014-08-02T09:10:00,4,20868585,201291
OK,83,39,613,83,2014-08-02T09:15:00,4,20869034,201291
OK,91,35,613,91,2014-08-02T09:20:00,7,20869483,201291
OK,91,35,613,91,2014-08-02T09:25:00,5,20869932,201291
OK,71,45,613,71,2014-08-02T09:30:00,3,20870381,201291
OK,77,42,613,77,2014-08-02T09:35:00,6,20870830,201291
OK,74,44,613,74,2014-08-02T09:40:00,5,20871279,201291
OK,69,47,613,69,2014-08-02T09:45:00,4,20871728,201291
OK,91,35,613,91,2014-08-02T09:50:00,6,20872177,201291
OK,81,40,613,81,2014-08-02T09:55:00,6,20872626,201291
OK,75,43,613,75,2014-08-02T10:00:00,3,20873075,201291
OK,72,45,613,72,2014-08-02T10:05:00,5,20873524,201291
OK,81,40,613,81,2014-08-02T10:10:00,7,20873973,201291
OK,101,32,613,101,2014-08-02T10:15:00,3,20874422,201291
OK,82,39,613,82,2014-08-02T10:20:00,4,20874871,201291
OK,80,40,613,80,2014-08-02T10:25:00,7,20875320,201291
OK,80,40,613,80,2014-08-02T10:30:00,3,20875769,201291
OK,72,45,613,72,2014-08-02T10:35:00,1,20876218,201291
OK,72,45,613,72,2014-08-02T10:40:00,1,20876667,201291
OK,82,39,613,82,2014-08-02T10:45:00,1,20877116,201291
OK,87,37,613,87,2014-08-02T10:50:00,7,20877565,201291
OK,87,37,613,87,2014-08-02T10:55:00,9,20878014,201291
OK,86,37,613,86,2014-08-02T11:00:00,7,20878463,201291
OK,92,35,613,92,2014-08-02T11:05:00,6,20878912,201291
OK,95,34,613,95,2014-08-02T11:10:00,1,20879361,201291
OK,81,40,613,81,2014-08-02T11:15:00,1,20879810,201291
OK,84,38,613,84,2014-08-02T11:20:00,1,20880259,201291
OK,90,36,613,90,2014-08-02T11:25:00,5,20880708,201291
OK,82,39,613,82,2014-08-02T11:30:00,6,20881157,201291
OK,82,39,613,82,2014-08-02T11:35:00,5,20881606,201291
OK,98,33,613,98,2014-08-02T11:40:00,2,20882055,201291
OK,85,38,613,85,2014-08-02T11:45:00,5,20882504,201291
OK,71,45,613,71,2014-08-02T11:50:00,7,20882953,201291
OK,68,47,613,68,2014-08-02T11:55:00,7,20883402,201291
OK,86,37,613,86,2014-08-02T12:00:00,5,20883851,201291
OK,96,33,613,96,2014-08-02T12:05:00,5,20884300,201291
OK,100,32,613,100,2014-08-02T12:10:00,1,20884749,201291
OK,101,32,613,101,2014-08-02T12:15:00,1,20885198,201291
OK,62,52,613,62,2014-08-02T12:20:00,1,20885647,201291
OK,84,38,613,84,2014-08-02T12:25:00,3,20886096,201291
OK,84,38,613,84,2014-08-02T12:30:00,5,20886545,201291
OK,79,41,613,79,2014-08-02T12:35:00,6,20886994,201291
OK,80,40,613,80,2014-08-02T12:40:00,8,20887443,201291
OK,77,42,613,77,2014-08-02T12:45:00,7,20887892,201291
OK,78,41,613,78,2014-08-02T12:50:00,4,20888341,201291
OK,77,42,613,77,2014-08-02T12:55:00,7,20888790,201291
OK,84,38,613,84,2014-08-02T13:00:00,9,20889239,201291
OK,85,38,613,85,2014-08-02T13:05:00,10,20889688,201291
OK,84,38,613,84,2014-08-02T13:10:00,5,20890137,201291
OK,68,47,613,68,2014-08-02T13:15:00,3,20890586,201291
OK,79,41,613,79,2014-08-02T13:20:00,6,20891035,201291
OK,79,41,613,79,2014-08-02T13:25:00,6,20891484,201291
OK,83,39,613,83,2014-08-02T13:30:00,3,20891933,201291
OK,86,37,613,86,2014-08-02T13:35:00,3,20892382,201291
OK,89,36,613,89,2014-08-02T13:40:00,6,20892831,201291
OK,90,36,613,90,2014-08-02T13:45:00,5,20893280,201291
OK,89,36,613,89,2014-08-02T13:50:00,4,20893729,201291
OK,74,44,613,74,2014-08-02T13:55:00,5,20894178,201291
OK,74,44,613,74,2014-08-02T14:00:00,4,20894627,201291
OK,85,38,613,85,2014-08-02T14:05:00,3,20895076,201291
OK,85,38,613,85,2014-08-02T14:10:00,7,20895525,201291
OK,85,38,613,85,2014-08-02T14:15:00,5,20895974,201291
OK,78,41,613,78,2014-08-02T14:20:00,7,20896423,201291
OK,81,40,613,81,2014-08-02T14:25:00,9,20896872,201291
OK,79,41,613,79,2014-08-02T14:30:00,6,20897321,201291
OK,80,40,613,80,2014-08-02T14:35:00,2,20897770,201291
OK,81,40,613,81,2014-08-02T14:40:00,2,20898219,201291
OK,77,42,613,77,2014-08-02T14:45:00,10,20898668,201291
OK,76,42,613,76,2014-08-02T14:50:00,8,20899117,201291
OK,70,46,613,70,2014-08-02T14:55:00,7,20899566,201291
OK,79,41,613,79,2014-08-02T15:00:00,11,20900015,201291
OK,85,38,613,85,2014-08-02T15:05:00,11,20900464,201291
OK,78,41,613,78,2014-08-02T15:10:00,9,20900913,201291
OK,83,39,613,83,2014-08-02T15:15:00,7,20901362,201291
OK,84,38,613,84,2014-08-02T15:20:00,6,20901811,201291
OK,95,34,613,95,2014-08-02T15:25:00,4,20902260,201291
OK,117,27,613,117,2014-08-02T15:30:00,4,20902709,201291
OK,98,33,613,98,2014-08-02T15:35:00,5,20903158,201291
OK,101,32,613,101,2014-08-02T15:40:00,7,20903607,201291
OK,102,31,613,102,2014-08-02T15:45:00,7,20904056,201291
OK,92,35,613,92,2014-08-02T15:50:00,9,20904505,201291
OK,89,36,613,89,2014-08-02T15:55:00,9,20904954,201291
OK,82,39,613,82,2014-08-02T16:00:00,5,20905403,201291
OK,96,33,613,96,2014-08-02T16:05:00,4,20905852,201291
OK,96,33,613,96,2014-08-02T16:10:00,7,20906301,201291
OK,83,39,613,83,2014-08-02T16:15:00,6,20906750,201291
OK,84,38,613,84,2014-08-02T16:20:00,5,20907199,201291
OK,92,35,613,92,2014-08-02T16:25:00,7,20907648,201291
OK,93,35,613,93,2014-08-02T16:30:00,4,20908097,201291
OK,68,47,613,68,2014-08-02T16:35:00,5,20908546,201291
OK,77,42,613,77,2014-08-02T16:40:00,4,20908995,201291
OK,86,37,613,86,2014-08-02T16:45:00,4,20909444,201291
OK,76,42,613,76,2014-08-02T16:50:00,3,20909893,201291
OK,85,38,613,85,2014-08-02T16:55:00,2,20910342,201291
OK,88,37,613,88,2014-08-02T17:00:00,2,20910791,201291
OK,78,41,613,78,2014-08-02T17:05:00,2,20911240,201291
OK,90,36,613,90,2014-08-02T17:10:00,3,20911689,201291
OK,81,40,613,81,2014-08-02T17:15:00,6,20912138,201291
OK,85,38,613,85,2014-08-02T17:20:00,2,20912587,201291
OK,82,39,613,82,2014-08-02T17:25:00,1,20913036,201291
OK,71,45,613,71,2014-08-02T17:30:00,6,20913485,201291
OK,71,45,613,71,2014-08-02T17:35:00,6,20913934,201291
OK,84,38,613,84,2014-08-02T17:40:00,0,20914383,201291
OK,71,45,613,71,2014-08-02T17:45:00,1,20914832,201291
OK,68,47,613,68,2014-08-02T17:50:00,1,20915281,201291
OK,86,37,613,86,2014-08-02T17:55:00,3,20915730,201291
OK,89,36,613,89,2014-08-02T18:00:00,4,20916179,201291
OK,66,49,613,66,2014-08-02T18:05:00,1,20916628,201291
OK,77,42,613,77,2014-08-02T18:10:00,3,20917077,201291
OK,64,50,613,64,2014-08-02T18:15:00,2,20917526,201291
OK,62,52,613,62,2014-08-02T18:20:00,1,20917975,201291
OK,70,46,613,70,2014-08-02T18:25:00,2,20918424,201291
OK,76,42,613,76,2014-08-02T18:30:00,3,20918873,201291
OK,76,42,613,76,2014-08-02T18:35:00,2,20919322,201291
OK,95,34,613,95,2014-08-02T18:40:00,1,20919771,201291
OK,76,42,613,76,2014-08-02T18:45:00,2,20920220,201291
OK,84,38,613,84,2014-08-02T18:50:00,3,20920669,201291
OK,84,38,613,84,2014-08-02T18:55:00,1,20921118,201291
OK,58,56,613,58,2014-08-02T19:00:00,2,20921567,201291
OK,60,54,613,60,2014-08-02T19:05:00,1,20922016,201291
OK,56,58,613,56,2014-08-02T19:10:00,1,20922465,201291
OK,86,37,613,86,2014-08-02T19:15:00,2,20922914,201291
OK,82,39,613,82,2014-08-02T19:20:00,3,20923363,201291
OK,61,53,613,61,2014-08-02T19:25:00,3,20923812,201291
OK,88,37,613,88,2014-08-02T19:30:00,5,20924261,201291
OK,88,37,613,88,2014-08-02T19:35:00,3,20924710,201291
OK,72,45,613,72,2014-08-02T19:40:00,2,20925159,201291
OK,73,44,613,73,2014-08-02T19:45:00,3,20925608,201291
OK,105,31,613,105,2014-08-02T19:50:00,0,20926057,201291